SCP
0 0 0 0 0 0 0 0 0 0 0 0 0 0 0 0 0 0 0 0 0 0 0 1 1 2 2 2 2 2 2 1 2 2 1 1 1 1 1 1 1 1 1 1
0 0 0 0 0 0 0 0 0 0 0 0 0 0 0 0 0 0 0 0 0 0 0 1 1 2 2 1 1 1 1 1 2 1 1 1 1 1 1 1 1 1 1 1
0 0 0 0 0 0 0 0 0 0 0 0 0 0 0 0 0 0 0 0 0 0 0 1 1 2 1 1 1 1 1 1 1 1 1 1 1 1 1 1 1 1 1 1
0 0 0 0 0 0 0 0 0 0 0 0 0 0 0 0 0 0 0 0 0 0 0 1 1 1 1 1 1 1 1 1 1 1 1 1 1 1 1 1 1 1 1 1
0 0 0 0 0 0 0 0 0 0 0 0 0 0 0 0 0 0 0 0 0 0 0 0 1 1 1 1 1 1 1 1 1 1 1 1 1 1 1 0 0 0 0 0
0 0 0 0 0 0 0 0 0 0 0 0 0 0 0 0 0 0 0 0 0 0 0 0 1 1 1 1 1 1 0 1 1 1 1 1 1 1 1 0 0 0 0 0
0 0 0 0 0 0 0 0 0 0 0 0 0 0 0 0 0 0 0 0 0 0 0 0 0 0 0 0 1 1 0 0 1 1 1 1 1 1 0 0 0 0 0 0
0 0 0 0 0 0 0 0 0 0 0 0 0 0 0 0 0 0 0 0 0 0 0 0 0 0 0 0 0 0 0 0 0 1 1 1 1 1 0 0 0 0 0 0
0 0 0 0 0 0 0 0 0 0 0 0 0 0 0 0 0 0 0 0 0 0 0 0 0 0 0 0 0 0 0 0 1 1 1 1 1 0 0 0 0 0 0 0
0 0 0 0 0 0 0 0 0 0 0 0 0 0 0 0 0 0 0 0 0 0 0 0 0 0 0 0 0 0 0 0 1 1 2 1 1 0 0 0 0 0 0 0
0 0 0 0 0 0 0 0 0 0 0 0 0 0 0 0 0 0 0 0 0 0 0 0 0 0 0 0 0 0 0 0 1 2 2 2 1 0 0 0 0 0 0 0
0 0 0 0 0 0 0 0 0 0 0 0 0 0 0 0 0 0 0 0 0 0 0 0 0 0 0 0 0 0 0 0 1 1 2 1 1 0 0 0 0 0 0 0
0 0 0 0 0 0 0 0 0 0 0 0 0 0 0 0 0 0 0 0 0 0 0 0 0 0 0 0 0 0 0 0 0 1 1 1 1 0 0 0 0 0 0 0
0 0 0 0 0 0 0 0 0 0 0 0 0 0 0 0 0 0 0 0 0 0 0 0 0 0 0 0 0 0 0 0 0 0 1 1 1 0 0 0 0 0 0 0
0 0 0 0 0 0 0 0 0 0 0 0 0 0 0 0 0 0 0 0 0 0 0 0 0 0 0 0 0 0 0 0 0 0 0 0 1 1 0 0 0 0 0 0
0 0 0 0 0 0 0 0 0 0 0 0 0 0 0 0 0 0 0 0 0 0 0 0 0 0 0 0 0 0 0 0 0 0 0 1 1 1 1 0 0 0 0 0
0 0 0 0 0 0 0 0 0 0 0 0 0 0 0 0 0 0 0 0 0 0 0 0 0 0 0 0 0 0 0 0 0 0 0 1 1 1 1 0 0 0 0 0
0 0 0 0 0 0 0 0 0 0 0 0 0 0 0 0 0 0 0 0 0 0 0 0 0 0 0 0 0 0 0 0 0 0 0 0 1 1 0 0 0 0 0 0
0 0 0 0 0 0 0 0 0 0 0 0 0 0 0 0 0 0 0 0 0 0 0 0 0 0 0 0 0 0 0 0 0 0 0 0 0 0 0 0 0 0 0 0
0 0 0 0 0 0 0 0 0 0 0 0 0 0 0 0 0 0 0 0 0 0 0 0 0 0 0 0 0 0 0 0 0 0 0 0 0 0 0 0 0 0 0 0
0 0 0 0 0 0 0 0 0 0 0 0 0 0 0 0 0 0 0 0 0 0 0 0 0 0 0 0 0 0 0 0 0 0 0 0 0 0 0 0 0 0 0 0
0 0 0 0 0 0 0 0 0 0 0 0 0 0 0 0 0 0 0 0 0 0 0 0 0 0 0 0 0 0 0 0 0 0 0 0 0 0 0 0 0 0 0 0
0 0 0 0 0 0 0 0 0 0 0 0 0 0 0 0 0 0 0 0 0 0 0 0 0 0 0 0 0 0 0 0 0 0 0 0 0 0 0 0 0 0 0 0
0 0 0 0 0 0 0 0 0 0 0 0 0 0 0 0 0 0 0 0 0 0 0 0 0 0 0 0 0 0 0 0 0 0 0 0 0 0 0 0 0 0 0 0
0 0 0 0 0 0 0 0 0 0 0 0 0 0 0 0 0 0 0 0 0 0 0 0 0 0 0 0 0 0 0 0 0 0 0 0 0 0 0 0 0 0 0 0
0 0 0 0 0 0 0 0 0 0 0 0 0 0 0 0 0 0 0 0 0 0 0 0 0 0 0 0 0 0 0 0 0 0 0 0 0 0 0 0 0 0 0 0
Wind_Speed
4 5 7 8 9 7 5 7 9 7 4 7 11 14 12 8 8 8 7 7 7 7 6 5 6 5 5 5 6 6 6 6 5 5 4 3 3 2 2 2 3 3 3 3
5 9 10 6 6 6 7 8 9 7 4 6 10 14 11 8 8 8 8 8 7 7 5 5 5 5 6 5 6 6 7 6 6 4 4 3 4 2 2 2 2 2 2 3
10 3 4 7 7 8 9 9 8 7 6 5 8 10 8 6 6 6 7 8 7 7 6 5 5 5 5 6 6 6 6 7 6 6 4 4 3 2 2 2 2 2 3 3
9 7 6 8 9 9 8 7 8 7 7 4 4 7 6 5 5 6 6 7 6 6 6 5 5 5 5 6 5 5 6 7 6 6 6 6 5 4 4 3 3 3 3 3
7 6 8 10 9 10 6 2 5 6 7 7 6 7 7 4 6 6 6 6 5 5 5 5 5 5 5 5 5 5 5 6 7 7 7 6 5 3 3 3 4 3 3 3
7 4 6 6 4 7 4 3 3 4 5 8 7 8 7 5 6 4 4 4 4 4 4 5 4 4 4 4 4 4 5 5 6 7 7 7 6 5 5 5 4 3 3 3
7 7 5 4 5 6 7 5 4 5 6 6 3 7 8 3 3 4 4 4 3 4 4 4 4 4 4 4 4 5 5 5 6 7 7 6 6 6 7 6 5 4 3 3
6 6 7 6 7 7 9 8 5 5 5 3 4 9 4 1 2 3 3 3 3 3 3 3 4 4 4 5 5 5 6 5 5 6 7 6 6 4 4 4 4 4 3 4
6 5 3 4 4 5 7 8 5 4 4 6 7 6 5 4 2 1 1 1 1 2 2 3 3 3 4 5 5 6 6 5 5 5 7 6 6 4 4 4 3 3 3 3
4 5 3 2 3 4 4 4 5 6 5 7 7 7 5 4 3 1 1 1 1 1 1 2 2 3 3 3 4 4 5 5 5 5 5 5 6 5 5 4 4 4 3 3
5 5 3 4 8 8 7 6 6 6 5 6 7 4 1 3 1 1 1 2 1 1 1 1 1 1 2 3 3 3 4 4 4 4 4 4 5 5 5 4 5 4 4 4
4 5 6 6 2 3 7 8 8 7 7 7 7 5 3 1 1 1 1 2 2 1 1 1 1 1 2 2 2 3 3 3 3 4 4 4 4 4 4 4 4 4 4 4
5 5 4 4 5 4 6 7 8 7 5 7 9 6 4 2 1 2 2 3 3 2 2 1 1 1 2 2 2 2 2 2 3 3 4 3 3 3 3 3 3 3 4 4
4 7 10 11 5 5 7 9 10 9 7 10 13 11 6 5 5 5 5 4 4 3 2 2 1 1 2 2 2 3 3 2 3 3 3 3 3 3 3 2 3 3 3 3
5 8 10 11 9 8 10 12 14 15 15 13 13 13 11 7 6 5 4 4 3 3 3 2 2 2 2 2 2 3 3 2 3 3 3 3 3 3 3 3 3 3 3 3
5 6 6 9 9 10 12 15 16 17 17 17 16 14 7 5 4 4 4 4 4 3 3 3 2 2 2 3 2 3 3 3 3 3 3 2 2 3 3 3 3 3 3 3
6 7 7 8 6 7 13 13 15 13 12 12 14 10 4 5 4 5 5 4 4 4 3 3 2 2 2 3 3 3 3 3 3 3 3 3 3 3 3 3 3 3 3 3
8 8 5 5 5 12 5 1 8 10 10 9 7 6 5 4 4 4 4 4 3 3 3 3 3 3 2 2 2 2 2 3 3 3 3 3 3 3 3 3 4 4 3 4
9 8 6 5 8 10 4 2 4 7 6 5 5 4 3 1 2 2 1 2 3 4 4 3 3 2 1 1 1 2 2 2 3 3 3 3 3 3 3 4 4 4 4 4
6 7 6 6 8 8 2 1 1 4 5 2 3 4 2 2 3 1 2 3 3 3 3 3 2 2 1 1 0 2 2 2 3 3 3 3 3 3 4 4 4 3 4 4
5 6 9 9 8 6 1 1 3 6 2 1 3 3 3 4 3 2 2 3 3 3 3 3 2 2 2 1 0 1 1 2 2 2 2 2 3 3 4 3 3 3 3 4
6 6 7 6 8 5 2 3 4 2 2 1 1 2 2 2 1 1 2 3 3 3 3 3 2 2 2 2 1 1 1 1 1 1 1 2 2 2 2 3 3 3 4 4
6 5 4 5 4 2 1 2 1 1 1 1 1 1 1 1 2 2 3 3 3 3 3 3 2 3 3 2 1 1 2 1 1 1 1 2 2 2 2 3 3 3 4 4
3 2 3 3 3 2 1 2 2 1 1 1 1 1 1 1 2 3 3 3 3 3 3 3 2 2 3 3 2 2 2 1 1 2 2 2 2 2 2 3 3 3 4 4
3 3 3 4 3 1 1 2 2 2 2 2 2 2 2 2 2 3 3 3 3 3 3 3 2 3 3 3 3 2 2 2 2 2 2 2 3 2 2 3 3 4 5 5
3 3 4 3 2 1 1 2 2 2 2 2 2 3 3 2 3 3 3 3 3 3 3 3 3 3 3 3 3 3 2 2 3 3 3 2 2 2 3 3 3 4 6 7
Wind_Direction
188 208 217 218 220 244 262 257 265 272 278 265 262 271 277 272 256 253 251 247 242 241 236 222 212 210 206 207 199 194 180 178 172 166 162 159 162 166 159 153 156 162 164 176
194 229 237 236 222 233 244 254 265 275 267 265 275 275 274 261 250 252 251 248 242 241 232 216 204 197 200 201 198 197 190 180 184 181 173 174 166 170 159 159 160 165 172 184
213 217 210 211 215 227 238 246 258 272 293 259 281 271 249 241 238 247 247 247 244 240 235 224 209 201 195 199 200 197 196 186 187 182 164 150 138 140 152 173 176 181 188 190
232 231 208 212 222 224 244 238 249 259 268 262 259 278 256 233 233 236 240 240 239 233 234 228 214 205 201 200 194 192 190 185 181 179 178 172 176 182 189 185 180 179 189 191
219 210 211 223 227 218 242 234 235 246 254 264 235 254 262 228 236 234 232 235 238 234 230 225 217 209 204 192 184 184 185 183 181 183 186 184 183 185 172 167 172 177 179 184
242 221 226 232 224 212 193 185 204 222 233 250 230 233 257 218 231 244 239 235 233 230 229 221 213 207 193 178 174 176 177 184 184 185 187 188 181 173 169 172 173 182 182 186
229 218 212 207 194 179 194 211 223 217 219 241 183 233 251 228 238 254 263 255 243 230 224 217 205 198 188 184 178 174 175 184 188 187 186 188 185 181 180 177 181 183 186 195
229 225 194 198 214 202 201 218 228 248 252 251 201 240 245 235 282 269 261 260 242 228 217 211 204 196 192 191 185 179 181 187 188 185 183 187 186 187 185 180 180 186 194 200
229 235 153 192 208 203 193 212 240 265 277 264 240 246 261 217 226 232 269 279 239 222 218 212 202 198 196 193 191 186 186 185 185 184 182 185 185 185 181 173 179 186 191 191
237 248 205 175 181 207 241 184 183 209 238 252 248 243 237 202 218 245 324 328 290 235 233 216 199 193 194 191 191 186 183 182 184 184 181 180 181 184 182 176 185 190 188 184
230 234 210 196 208 201 182 191 212 219 245 254 262 249 168 205 213 273 305 320 317 283 262 239 213 183 169 166 174 180 176 176 178 184 178 169 170 175 180 182 187 189 190 195
216 233 236 230 228 262 223 214 205 220 226 238 263 270 91 141 79 333 332 343 330 313 307 299 240 184 165 165 173 180 177 179 186 183 176 170 168 174 184 192 194 189 192 195
189 215 234 217 195 188 215 216 219 235 251 234 241 247 114 104 16 352 345 343 340 330 328 320 251 215 202 193 189 190 188 187 183 179 177 173 173 183 196 200 193 189 193 192
227 225 232 243 256 200 221 221 214 212 229 242 244 257 255 282 305 315 320 326 325 320 315 310 289 253 227 212 204 197 193 192 188 184 181 189 195 201 206 204 201 202 201 200
218 241 245 257 263 247 243 236 223 222 230 243 255 259 266 275 283 293 301 312 313 314 316 307 286 273 256 233 221 213 201 194 191 193 196 205 209 206 205 203 204 207 207 210
219 239 248 255 250 247 253 246 238 237 238 245 256 263 273 278 285 286 289 296 298 302 306 301 299 285 263 248 232 223 215 200 194 199 206 207 205 201 205 206 206 206 212 215
211 216 226 244 238 258 250 237 229 229 230 232 241 248 258 264 272 286 292 289 288 294 298 292 290 277 255 244 230 225 218 198 197 202 201 203 203 204 209 207 207 212 215 218
214 214 225 238 215 235 248 207 218 224 234 228 241 255 249 257 289 295 290 286 290 298 297 294 294 292 281 258 231 217 203 198 198 203 207 209 204 207 212 214 221 225 224 223
218 210 214 218 236 253 248 197 200 208 232 229 234 251 270 295 296 278 324 313 309 302 298 296 298 303 305 278 228 194 191 198 206 212 214 214 212 212 218 224 230 231 228 231
206 216 224 224 234 242 233 109 218 187 226 207 224 235 250 229 244 271 358 327 324 326 328 329 336 346 356 351 234 184 186 203 222 228 229 222 219 220 226 233 238 241 238 237
188 201 218 227 238 250 38 82 162 207 241 147 217 230 229 251 280 324 323 328 333 336 342 345 356 1 353 350 354 186 203 236 254 251 238 236 233 233 237 239 240 241 243 243
202 200 209 218 230 238 109 143 199 285 18 189 236 254 262 281 291 301 313 325 333 339 343 344 353 356 350 345 336 292 274 286 290 256 242 249 256 252 243 239 242 239 236 240
225 228 224 217 241 349 166 217 285 299 238 274 281 281 246 261 286 304 314 323 330 336 342 344 347 345 340 339 333 297 306 307 271 253 263 266 271 266 249 240 239 239 236 237
239 266 236 239 251 277 301 325 347 343 317 324 320 301 266 275 300 305 313 322 328 333 337 341 340 334 331 333 328 309 301 292 262 257 264 262 257 263 263 255 243 241 240 242
259 222 226 238 264 311 350 346 340 349 3 16 8 342 317 307 305 307 313 319 322 324 322 322 318 316 312 314 315 312 301 283 267 265 265 267 262 257 262 262 257 254 254 254
249 233 232 248 250 227 304 353 17 21 9 1 360 353 344 329 318 319 317 314 310 309 310 308 308 303 300 303 304 307 297 280 273 275 277 274 271 269 265 268 275 262 258 266